Location: Cedar Brake
(32.2526°N, 97.8459°W)
Time: 09:05:33
(UTC+00:00)

Cosmos 1933 Rocket - Pass Details

Date: 22 April 2026
Orbit: 600 x 622 km, 82.5° (Epoch: 15 May)

Event Time Altitude Azimuth Distance (km) Brightness Sun altitude
Rises 01:35:33 0° 195° (SSW) 2,864 6.9 -6.9°
Reaches altitude 10° 01:37:47 10° 199° (SSW) 1,967 6.2 -7.4°
Maximum altitude 01:42:04 55° 278° (W) 741 4.4 -8.2°
Drops below altitude 10° 01:46:23 10° 357° (N) 1,990 6.5 -9.1°
Sets 01:48:40 0° 1° (N) 2,902 7.3 -9.5°
